Simultaneous Nadir Overpasses (SNOs) Predictions

Prediction of SNOs between AQUA and METOP-A Satellite Orbit:

Table of predicted SNOs for the next 14.0 days since TLE Epoch: 12/29/2011
Index Date Time (AQUA) AQUA Lat,Lon METOP-A Lat,Lon Distance(km) Time Diff (sec)
1 12/29/2011 20:13:42 -70.44, 56.50 -70.46, 44.47 447.03 13
2 12/29/2011 21:04:12 73.76,-141.84 73.75,-141.84 1.57 67
3 12/29/2011 21:53:39 -73.84, 25.64 -73.82, 25.66 2.24 6
4 12/29/2011 22:43:10 74.01,-167.12 74.03,-166.50 19.08 71
5 01/01/2012 15:48:14 -71.18, 121.77 -71.18, 112.04 348.72 32
6 01/01/2012 16:38:30 73.75, -75.39 73.77, -75.38 2.35 59
7 01/01/2012 17:27:57 -73.83, 92.09 -73.85, 92.13 2.81 14
8 01/01/2012 18:17:33 74.32,-101.39 74.30, -99.41 59.65 68
9 01/04/2012 11:22:40 -71.70,-172.64 -71.72, 179.40 277.75 43
10 01/04/2012 12:12:47 73.78, -9.02 73.79, -8.93 3.05 51
11 01/04/2012 13:02:14 -73.85, 158.46 -73.82, 158.47 3.46 23
12 01/04/2012 13:51:57 74.65, -35.78 74.66, -32.07 109.28 63
13 01/07/2012 06:57:06 -72.19,-107.06 -72.19,-113.31 212.42 52
14 01/07/2012 07:47:04 73.79, 57.38 73.80, 57.49 3.30 42
15 01/07/2012 08:36:31 -73.86,-135.13 -73.83,-135.10 3.13 32
16 01/07/2012 09:26:21 75.02, 29.71 75.01, 35.30 160.52 58
17 01/10/2012 02:31:31 -72.66, -41.49 -72.60, -46.09 152.82 59
18 01/10/2012 03:21:20 73.79, 123.83 73.80, 123.88 2.02 32
19 01/10/2012 04:10:47 -73.85, -68.67 -73.84, -68.70 2.02 42




NCC Satellite Simultaneous Nadir Overpasses (SNOs) Prediction Service
